Weather History for KSFM - February, 2012

Change the Weather History Date:

Sunday, February 12, 2012

  Actual Average Record
Temperature  
Mean Temperature 17 °F -  
Max Temperature 24 °F 31 °F 51 °F (1999)
Min Temperature 10 °F 12 °F -16 °F (2014)
Degree Days  
Heating Degree Days 48    
Moisture  
Dew Point -2 °F    
Average Humidity 48    
Maximum Humidity 58    
Minimum Humidity 38    
Precipitation  
Precipitation 0.00 in - - ()
Sea Level Pressure  
Sea Level Pressure 29.63 in    
Wind  
Wind Speed 13 mph (WNW)    
Max Wind Speed 23 mph    
Max Gust Speed 34 mph    
Visibility 10 miles    
Events      
Averages and records for this station are not official NWS values.
T = Trace of Precipitation, MM = Missing Value Source: NWS Daily Summary

Daily Weather History Graph

Daily Weather History Graph

Search for Another Location

Airport or City:

Trip Planner

Search our weather history database for the weather conditions in past years. The results will help you decide how hot, cold, wet, or windy it might be!

Date:

Astronomy

Feb. 12, 2012 Rise Set
Actual Time 6:45 AM EST 5:08 PM EST
Civil Twilight 6:16 AM EST 5:38 PM EST
Nautical Twilight 5:42 AM EST 6:11 PM EST
Astronomical Twilight 5:09 AM EST 6:45 PM EST
Moon 11:16 PM EST (2/12) 8:50 AM EST (2/12)
Length of Visible Light 11h 21m
Length of Day
10h 22m
Waning Gibbous, 72% of the Moon is Illuminated
Feb 12
Waning Gibbous
Feb 14
Last Quarter
Feb 21
New
Feb 29
First Quarter
Mar 8
Full

Hourly Weather History & Observations

Time (EST) Temp. Windchill Dew Point Humidity Pressure Visibility Wind Dir Wind Speed Gust Speed Precip Events Conditions
12:15 AM 24.8 °F 12.9 °F 10.4 °F 54% 29.53 in 10.0 mi North 13.8 mph 21.9 mph N/A   Clear
12:35 AM 24.8 °F 14.0 °F 10.4 °F 54% 29.54 in 10.0 mi North 11.5 mph 19.6 mph N/A   Clear
12:55 AM 23.0 °F 9.2 °F 6.8 °F 50% 29.54 in 10.0 mi North 17.3 mph 23.0 mph N/A   Clear
1:15 AM 21.2 °F 9.5 °F 8.6 °F 58% 29.55 in 10.0 mi North 11.5 mph 21.9 mph N/A   Clear
1:35 AM 21.2 °F 8.3 °F 6.8 °F 54% 29.55 in 10.0 mi NNW 13.8 mph 18.4 mph N/A   Clear
1:55 AM 21.2 °F 10.1 °F 8.6 °F 58% 29.56 in 10.0 mi NNW 10.4 mph - N/A   Clear
2:15 AM 19.4 °F 7.9 °F 3.2 °F 49% 29.56 in 10.0 mi NW 10.4 mph 17.3 mph N/A   Clear
2:35 AM 19.4 °F 6.0 °F 3.2 °F 49% 29.56 in 10.0 mi NW 13.8 mph 23.0 mph N/A   Clear
2:55 AM 19.4 °F 7.2 °F -0.4 °F 42% 29.56 in 10.0 mi NW 11.5 mph 19.6 mph N/A   Clear
3:15 AM 17.6 °F 4.3 °F -2.2 °F 42% 29.57 in 10.0 mi NW 12.7 mph 23.0 mph N/A   Clear
3:35 AM 17.6 °F 5.0 °F 3.2 °F 53% 29.58 in 10.0 mi WNW 11.5 mph 17.3 mph N/A   Clear
3:55 AM 15.8 °F 5.1 °F -0.4 °F 49% 29.58 in 10.0 mi WNW 8.1 mph - N/A   Clear
4:16 AM 15.8 °F 2.1 °F -0.4 °F 49% 29.58 in 10.0 mi WNW 12.7 mph - N/A   Clear
4:35 AM 15.8 °F 4.2 °F -4.0 °F 41% 29.58 in 10.0 mi NW 9.2 mph 20.7 mph N/A   Clear
4:55 AM 14.0 °F 2.0 °F -2.2 °F 49% 29.58 in 10.0 mi WNW 9.2 mph - N/A   Clear
5:15 AM 14.0 °F 2.0 °F -2.2 °F 49% 29.59 in 10.0 mi WNW 9.2 mph - N/A   Clear
5:35 AM 12.2 °F -1.0 °F -4.0 °F 48% 29.59 in 10.0 mi WNW 10.4 mph 16.1 mph N/A   Clear
5:55 AM 12.2 °F -0.2 °F -2.2 °F 53% 29.59 in 10.0 mi WNW 9.2 mph 16.1 mph N/A   Clear
6:15 AM 12.2 °F 4.3 °F -4.0 °F 48% 29.60 in 10.0 mi WNW 4.6 mph - N/A   Clear
6:35 AM 12.2 °F 0.7 °F -0.4 °F 57% 29.61 in 10.0 mi West 8.1 mph - N/A   Clear
6:56 AM 12.2 °F -1.8 °F -2.2 °F 53% 29.61 in 10.0 mi West 11.5 mph - N/A   Clear
7:15 AM 12.2 °F -3.7 °F -0.4 °F 57% 29.61 in 10.0 mi West 15.0 mph 21.9 mph N/A   Clear
7:35 AM 12.2 °F -2.5 °F -0.4 °F 57% 29.62 in 10.0 mi West 12.7 mph 21.9 mph N/A   Clear
7:55 AM 12.2 °F -1.8 °F -2.2 °F 53% 29.63 in 10.0 mi West 11.5 mph 18.4 mph N/A   Clear
8:15 AM 14.0 °F 1.2 °F 1.4 °F 57% 29.63 in 10.0 mi West 10.4 mph - N/A   Clear
8:35 AM 15.8 °F 3.4 °F -0.4 °F 49% 29.63 in 10.0 mi West 10.4 mph 16.1 mph N/A   Clear
8:55 AM 15.8 °F 4.2 °F -0.4 °F 49% 29.63 in 10.0 mi West 9.2 mph - N/A   Clear
9:15 AM 15.8 °F 4.2 °F 1.4 °F 53% 29.63 in 10.0 mi West 9.2 mph - N/A   Clear
9:35 AM 15.8 °F 1.4 °F -2.2 °F 45% 29.63 in 10.0 mi West 13.8 mph 18.4 mph N/A   Clear
9:55 AM 17.6 °F 3.7 °F -0.4 °F 45% 29.63 in 10.0 mi West 13.8 mph 23.0 mph N/A   Clear
10:15 AM 17.6 °F 3.7 °F -2.2 °F 42% 29.63 in 10.0 mi West 13.8 mph 21.9 mph N/A   Clear
10:35 AM 17.6 °F 2.7 °F -0.4 °F 45% 29.63 in 10.0 mi West 16.1 mph 19.6 mph N/A   Clear
10:55 AM 17.6 °F 2.7 °F -0.4 °F 45% 29.63 in 10.0 mi WNW 16.1 mph 20.7 mph N/A   Clear
11:15 AM 17.6 °F 3.2 °F -0.4 °F 45% 29.62 in 10.0 mi WNW 15.0 mph 24.2 mph N/A   Clear
11:35 AM 19.4 °F 4.1 °F -0.4 °F 42% 29.61 in 10.0 mi West 18.4 mph 26.5 mph N/A   Clear
11:55 AM 19.4 °F 3.2 °F -2.2 °F 39% 29.61 in 10.0 mi West 20.7 mph 26.5 mph N/A   Partly Cloudy
12:15 PM 17.6 °F 0.5 °F 1.4 °F 49% 29.60 in 10.0 mi WNW 21.9 mph 33.4 mph N/A   Partly Cloudy
12:35 PM 17.6 °F 0.9 °F -2.2 °F 42% 29.59 in 10.0 mi WNW 20.7 mph 31.1 mph N/A   Clear
12:55 PM 17.6 °F 1.3 °F -0.4 °F 45% 29.59 in 10.0 mi West 19.6 mph 29.9 mph N/A   Clear
1:15 PM 17.6 °F 0.1 °F -0.4 °F 45% 29.59 in 10.0 mi West 23.0 mph 32.2 mph N/A   Clear
1:35 PM 17.6 °F 0.9 °F -2.2 °F 42% 29.60 in 10.0 mi West 20.7 mph 31.1 mph N/A   Clear
1:55 PM 15.8 °F -2.3 °F -2.2 °F 45% 29.60 in 10.0 mi West 23.0 mph 29.9 mph N/A   Clear
2:15 PM 15.8 °F -0.2 °F -4.0 °F 41% 29.60 in 10.0 mi WNW 17.3 mph 32.2 mph N/A   Clear
2:35 PM 15.8 °F 1.4 °F -2.2 °F 45% 29.61 in 10.0 mi WNW 13.8 mph 33.4 mph N/A   Clear
2:55 PM 15.8 °F -1.1 °F -2.2 °F 45% 29.62 in 10.0 mi West 19.6 mph 27.6 mph N/A   Clear
3:15 PM 15.8 °F -2.3 °F -5.8 °F 38% 29.62 in 10.0 mi West 23.0 mph 32.2 mph N/A   Clear
3:55 PM 14.0 °F -4.3 °F -5.8 °F 41% 29.63 in 10.0 mi WNW 21.9 mph 34.5 mph N/A   Clear
4:15 PM 14.0 °F -4.3 °F -4.0 °F 45% 29.65 in 10.0 mi WNW 21.9 mph 26.5 mph N/A   Clear
4:35 PM 12.2 °F -6.3 °F -5.8 °F 45% 29.66 in 10.0 mi WNW 20.7 mph 26.5 mph N/A   Clear
4:55 PM 12.2 °F -1.0 °F -5.8 °F 45% 29.67 in 10.0 mi NW 10.4 mph - N/A   Clear
5:15 PM 12.2 °F -2.5 °F -4.0 °F 48% 29.68 in 10.0 mi WNW 12.7 mph 21.9 mph N/A   Clear
5:35 PM 12.2 °F -3.7 °F -5.8 °F 45% 29.70 in 10.0 mi WNW 15.0 mph 21.9 mph N/A   Clear
5:55 PM 12.2 °F -2.5 °F -5.8 °F 45% 29.71 in 10.0 mi WNW 12.7 mph 20.7 mph N/A   Clear
6:15 PM 12.2 °F -0.2 °F -5.8 °F 45% 29.73 in 10.0 mi WNW 9.2 mph 18.4 mph N/A   Clear
6:35 PM 10.4 °F -6.6 °F -7.6 °F 44% 29.73 in 10.0 mi West 16.1 mph 23.0 mph N/A   Clear
6:55 PM 10.4 °F -6.0 °F -5.8 °F 48% 29.75 in 10.0 mi WNW 15.0 mph 23.0 mph N/A   Clear
7:15 PM 10.4 °F -4.8 °F -5.8 °F 48% 29.75 in 10.0 mi WNW 12.7 mph 20.7 mph N/A   Clear
7:35 PM 10.4 °F -5.4 °F -7.6 °F 44% 29.77 in 10.0 mi WNW 13.8 mph 23.0 mph N/A   Clear
7:55 PM 10.4 °F -3.3 °F -5.8 °F 48% 29.78 in 10.0 mi WNW 10.4 mph - N/A   Clear
8:35 PM 10.4 °F -3.3 °F -7.6 °F 44% 29.80 in 10.0 mi NW 10.4 mph 16.1 mph N/A   Clear
8:55 PM 10.4 °F -5.4 °F -5.8 °F 48% 29.80 in 10.0 mi West 13.8 mph 20.7 mph N/A   Clear
9:15 PM 10.4 °F -0.4 °F -5.8 °F 48% 29.81 in 10.0 mi WNW 6.9 mph 16.1 mph N/A   Clear
9:36 PM 10.4 °F -3.3 °F -7.6 °F 44% 29.81 in 10.0 mi West 10.4 mph 17.3 mph N/A   Clear
9:55 PM 10.4 °F -4.1 °F -5.8 °F 48% 29.81 in 10.0 mi WNW 11.5 mph 17.3 mph N/A   Scattered Clouds
10:15 PM 10.4 °F -2.4 °F -5.8 °F 48% 29.82 in 10.0 mi WNW 9.2 mph - N/A   Mostly Cloudy
10:35 PM 10.4 °F -4.1 °F -7.6 °F 44% 29.82 in 10.0 mi WNW 11.5 mph 19.6 mph N/A   Overcast
10:55 PM 10.4 °F -3.3 °F -4.0 °F 52% 29.82 in 10.0 mi West 10.4 mph - N/A   Overcast
11:15 PM 10.4 °F -4.8 °F -4.0 °F 52% 29.83 in 10.0 mi West 12.7 mph - N/A   Overcast
11:35 PM 10.4 °F -2.4 °F -5.8 °F 48% 29.82 in 10.0 mi West 9.2 mph 18.4 mph N/A   Overcast